Location: Chomutov
(50.4500°N, 13.4333°E)
Time: 18:53:51
(UTC+02:00)

FO-29 - Pass Details

Date: 25 September 2021
Orbit: 800 x 1321 km, 98.6° (Epoch: 23 October)

Event Time Altitude Azimuth Distance (km) Brightness Sun altitude
Exits shadow 19:23:00 - 99° (E) 3,710 11.8 -4.9°
Reaches altitude 10° 19:24:35 10° 92° (E) 3,307 11.6 -5.1°
Maximum altitude 19:29:58 21° 47° (NE) 2,594 11.4 -6.0°
Drops below altitude 10° 19:35:25 10° 3° (N) 3,358 12.4 -6.9°
Sets 19:38:52 0° 349° (N) 4,310 13.1 -7.4°
